IRIDIUM 156

Last updated on Sun Jun 21 2026 00:03:14 GMT+0000 (Coordinated Universal Time)

1 43576U 18061H 26171.39656089 .00000206 00000+0 66320-4 0 9992 2 43576 86.3959 55.3875 0002040 83.6900 276.4528 14.34216473413830
UTC large
Height (km)
Speed (km/s)
/
Latitude / Longitude
Inclination (degrees)
Orbital Period (minutes)
Azimuth
Elevation
Range (km)
Doppler Factor

Next 0 passes for location: London (51.5072 / 0.1276)

No passes found over London.
IRIDIUM 156